[[{"header":{"parameterUnit":"m.s-1","parameterCategory":1,"la1":30.2991,"la2":30.254,"lo1":-89.0895,"lo2":-89.0444,"dy":0.0017,"dx":0.0017,"nx":28,"ny":28,"refTime":"2024-02-26T03:00:00:Z","depth":0,"parameterNumber":2,"parameterNumberName":"U-component_of_WINDS"},"data":[0,0,0,0,0,0,0,0,0,0,0,0,0,0,0,0,0,0,0,0,0,0,0,0,0,0,0,0,0,0,0,0,0,0,0,0,0,0,0,0,0,0,0,0,0,0,0,0,0,0,0,0,0,0,0,0,0,0,-0.9225,-0.9225,0,-0.9186,-0.9186,-0.9186,-0.9139,-0.9139,-0.9138,-0.9137,-0.9099,-0.9099,-0.9099,0,0,0,0,0,0,0,0,0,0,0,0,0,-0.9261,-0.926,-0.9225,-0.9225,-0.9224,-0.9186,-0.9186,-0.9185,-0.914,-0.9139,-0.9138,-0.9137,-0.9099,-0.9099,-0.9099,0,0,0,0,0,0,0,0,0,0,0,0,0,-0.9236,-0.926,-0.9225,-0.9197,-0.9194,-0.9187,-0.9186,-0.9185,-0.914,-0.9139,-0.9138,-0.9137,-0.91,-0.9099,-0.9099,-0.9117,0,0,-0.9097,-0.9097,0,0,0,0,0,0,0,0,-0.9238,-0.9235,-0.9201,-0.9199,-0.9195,-0.9167,-0.9185,-0.9162,-0.914,-0.916,-0.9137,-0.9136,-0.9123,-0.912,-0.9115,-0.9115,-0.9113,-0.9097,-0.9097,-0.9096,-0.9096,0,0,0,0,0,0,0,-0.9239,-0.9236,-0.921,-0.9201,-0.9197,-0.9186,-0.9182,-0.918,-0.9148,-0.9158,-0.9155,-0.9151,-0.9121,-0.9116,-0.9114,-0.9113,-0.9097,-0.9096,-0.9096,-0.9096,-0.9125,-0.9126,0,0,0,0,0,0,-0.9245,-0.9238,-0.9211,-0.9209,-0.9214,-0.9187,-0.9181,-0.9177,-0.9148,-0.9142,-0.9152,-0.9149,-0.9117,-0.9115,-0.9113,-0.9132,-0.9096,-0.9096,-0.9096,-0.9124,-0.9126,-0.9127,0,0,0,0,0,0,-0.9246,-0.9243,-0.9213,-0.9222,-0.9218,-0.9187,-0.9183,-0.9177,-0.9172,-0.9143,-0.9137,-0.9153,-0.9116,-0.9113,-0.9116,-0.913,-0.9096,-0.9095,-0.9123,-0.9125,-0.9126,-0.917,0,0,0,0,0,0,-0.9247,-0.9244,-0.925,-0.9223,-0.9217,-0.9216,-0.9183,-0.9177,-0.9171,-0.9167,-0.9142,-0.9137,-0.9115,-0.9117,-0.9115,-0.9128,-0.9095,-0.9122,-0.9124,-0.9126,-0.9167,-0.9173,-0.9178,0,0,0,0,0,-0.9249,-0.9264,-0.9251,-0.9248,-0.9224,-0.9217,-0.9214,-0.9188,-0.9172,-0.9178,-0.916,-0.9138,-0.9129,-0.9118,-0.9115,-0.9129,-0.9121,-0.9123,-0.9126,-0.9165,-0.9172,-0.9178,0,0,0,0,0,0,-0.9295,-0.926,-0.9245,-0.9252,-0.9238,-0.9209,-0.9216,-0.9197,-0.9187,-0.9184,-0.9152,-0.9147,-0.9154,-0.9141,-0.913,-0.9145,-0.9121,-0.9124,-0.9152,-0.9159,-0.9164,-0.9167,-0.9094,0,0,0,0,0,-0.9305,-0.9302,-0.9272,-0.9282,-0.9275,-0.9247,-0.9243,-0.9224,-0.9209,-0.9203,-0.9184,-0.917,-0.9164,-0.9161,-0.9154,-0.9166,-0.916,-0.9174,-0.9179,-0.9184,-0.9186,-0.9191,-0.9197,-0.9135,-0.9135,-0.9135,0,0,-0.9328,-0.9309,-0.9309,-0.929,-0.9277,-0.9274,-0.9242,-0.9241,-0.9239,-0.9203,-0.9203,-0.919,-0.9172,-0.918,-0.9182,-0.917,-0.9202,-0.9187,-0.9191,-0.919,-0.9194,-0.92,-0.9205,-0.9137,-0.9136,-0.9136,0,0,-0.9368,-0.9353,-0.9358,-0.9346,-0.9326,-0.9307,-0.9309,-0.9284,-0.9273,-0.9273,-0.9246,-0.9243,-0.9234,-0.9222,-0.9215,-0.9251,-0.923,-0.9249,-0.9277,-0.9283,-0.9287,-0.9292,-0.9304,-0.9309,-0.9252,-0.9252,-0.9252,0,-0.9398,-0.9392,-0.9364,-0.9364,-0.9357,-0.9324,-0.933,-0.9319,-0.9298,-0.9294,-0.9281,-0.9268,-0.9254,-0.9258,-0.9266,-0.9262,-0.9263,-0.9252,-0.9289,-0.9293,-0.9296,-0.9308,-0.9313,-0.9254,-0.9254,-0.9254,-0.9253,0,-0.9431,-0.9428,-0.9435,-0.9415,-0.9408,-0.9412,-0.9384,-0.9382,-0.9364,-0.9347,-0.9348,-0.933,-0.9318,-0.9318,-0.9301,-0.932,-0.9313,-0.9295,-0.927,-0.9305,-0.9315,-0.932,-0.9258,-0.9257,-0.9256,-0.9255,0,0,-0.9498,-0.9462,-0.9465,-0.9456,-0.9431,-0.9429,-0.9431,-0.9419,-0.9417,-0.9404,-0.9405,-0.9397,-0.938,-0.9372,-0.9354,-0.9359,-0.9388,-0.934,-0.9339,-0.9349,-0.9407,-0.9421,-0.9426,-0.9374,-0.9375,-0.9375,-0.9409,0,-0.9533,-0.9533,-0.9508,-0.9515,-0.9512,-0.948,-0.9481,-0.9467,-0.9452,-0.9447,-0.943,-0.9425,-0.9403,-0.9398,-0.9401,-0.9383,-0.9399,-0.9381,-0.9375,-0.9375,-0.9379,-0.9431,-0.9446,-0.9478,-0.9412,-0.9413,-0.9414,0,-0.9573,-0.9562,-0.9569,-0.9544,-0.9542,-0.9543,-0.953,-0.9526,-0.951,-0.9498,-0.9489,-0.9467,-0.9468,-0.9446,-0.9446,-0.9435,-0.9431,-0.9422,-0.9422,-0.942,-0.9396,-0.9431,-0.9487,-0.9492,-0.942,-0.9419,-0.9419,0,-0.9621,-0.9607,-0.961,-0.9602,-0.9574,-0.9576,-0.9564,-0.9546,-0.9541,-0.953,-0.9526,-0.9516,-0.951,-0.9503,-0.9479,-0.9465,-0.9482,-0.9458,-0.9473,-0.9473,-0.9477,-0.9477,-0.9534,-0.9476,-0.9476,-0.9476,-0.9476,0,-0.9662,-0.9668,-0.963,-0.9632,-0.9637,-0.9608,-0.9615,-0.96,-0.9584,-0.9583,-0.9555,-0.9555,-0.9524,-0.952,-0.9502,-0.9505,-0.9502,-0.9493,-0.9488,-0.9495,-0.9496,-0.9492,-0.9489,-0.9477,-0.9477,-0.9477,-0.9476,0,-0.9716,-0.9692,-0.9692,-0.9664,-0.9658,-0.9663,-0.964,-0.964,-0.9623,-0.9621,-0.9619,-0.9592,-0.9586,-0.9562,-0.955,-0.9538,-0.9547,-0.9537,-0.9552,-0.9549,-0.9564,-0.9563,-0.962,-0.9626,-0.9565,-0.9565,-0.9566,0,-0.9744,-0.9747,-0.972,-0.9717,-0.9706,-0.9701,-0.9695,-0.9667,-0.9662,-0.9643,-0.9646,-0.9637,-0.9629,-0.9621,-0.96,-0.9591,-0.9581,-0.9601,-0.9579,-0.9587,-0.9581,-0.9581,-0.9581,-0.9606,-0.9607,-0.9608,-0.9608,0,-0.9796,-0.9783,-0.9775,-0.9763,-0.9756,-0.9746,-0.9733,-0.9732,-0.9701,-0.9697,-0.969,-0.9684,-0.9671,-0.9663,-0.9651,-0.9639,-0.9619,-0.9615,-0.9618,-0.9625,-0.9634,-0.9629,-0.9564,-0.9614,-0.9613,-0.9613,-0.9613,-0.9612,-0.9837,-0.9839,-0.9819,-0.9811,-0.9799,-0.9788,-0.9787,-0.9769,-0.9762,-0.975,-0.9734,-0.9729,-0.9712,-0.9693,-0.9683,-0.9679,-0.9668,-0.9672,-0.9673,-0.9674,-0.9678,-0.9635,-0.9677,-0.9677,-0.9677,-0.9676,-0.9676,0,-0.9888,-0.9874,-0.9866,-0.9849,-0.9843,-0.9824,-0.9809,-0.9806,-0.9801,-0.9787,-0.9779,-0.9771,-0.9763,-0.9742,-0.9732,-0.9733,-0.9723,-0.9731,-0.9731,-0.9729,-0.9689,-0.9687,-0.9739,-0.9739,-0.9739,-0.9739,-0.9739,-0.9739,-0.9913,-0.9914,-0.9899,-0.9894,-0.988,-0.9874,-0.9867,-0.9857,-0.9846,-0.9838,-0.983,-0.9817,-0.98,-0.9788,-0.978,-0.9774,-0.9772,-0.9783,-0.9774,-0.9737,-0.9731,-0.9726,-0.9724,-0.9783,-0.9783,-0.9814,-0.9814,-0.9815]},{"header":{"parameterUnit":"m.s-1","parameterCategory":1,"la1":30.2991,"la2":30.254,"lo1":-89.0895,"lo2":-89.0444,"dy":0.0017,"dx":0.0017,"nx":28,"ny":28,"refTime":"2024-02-26T03:00:00:Z","depth":0,"parameterNumber":3,"parameterNumberName":"V-component_of_WINDS"},"data":[0,0,0,0,0,0,0,0,0,0,0,0,0,0,0,0,0,0,0,0,0,0,0,0,0,0,0,0,0,0,0,0,0,0,0,0,0,0,0,0,0,0,0,0,0,0,0,0,0,0,0,0,0,0,0,0,0,0,3.0223,3.0222,0,3.0151,3.015,3.015,3.0181,3.0183,3.0185,3.0186,3.011,3.0107,3.0103,0,0,0,0,0,0,0,0,0,0,0,0,0,3.0386,3.0382,3.0223,3.0222,3.0221,3.0151,3.015,3.0149,3.0181,3.0183,3.0185,3.0187,3.0111,3.0107,3.0103,0,0,0,0,0,0,0,0,0,0,0,0,0,3.0314,3.0381,3.0223,3.0228,3.0228,3.0151,3.015,3.0149,3.018,3.0183,3.0186,3.0188,3.0113,3.0107,3.0102,3.0015,0,0,3.0085,3.0083,0,0,0,0,0,0,0,0,3.0318,3.0308,3.0228,3.0228,3.0227,3.0178,3.018,3.0104,3.018,3.0198,3.0186,3.0189,3.013,3.0124,3.0104,3.0011,3.0008,3.0085,3.0081,3.0079,3.0077,0,0,0,0,0,0,0,3.0323,3.0312,3.0194,3.0227,3.0226,3.0234,3.0227,3.0166,3.015,3.0197,3.0199,3.019,3.0131,3.0109,3.0103,3.0007,3.0085,3.008,3.0077,3.0074,2.9843,2.984,0,0,0,0,0,0,3.0328,3.0316,3.0197,3.0192,3.028,3.0229,3.0221,3.0191,3.0151,3.0147,3.0188,3.0192,3.0118,3.0109,3.01,2.9998,3.0079,3.0074,3.0071,2.9846,2.9842,2.9839,0,0,0,0,0,0,3.0332,3.0317,3.0199,3.0254,3.024,3.0223,3.0189,3.0188,3.0167,3.0144,3.0142,3.0169,3.0119,3.0108,3.0037,2.9996,3.0071,3.0066,2.9849,2.9844,2.9841,2.9791,0,0,0,0,0,0,3.0336,3.0318,3.0285,3.0253,3.0237,3.0137,3.0187,3.0185,3.0158,3.0162,3.0126,3.0123,3.012,3.0045,3.0031,2.9989,3.0062,2.9852,2.9847,2.9842,2.9796,2.9786,2.9777,0,0,0,0,0,3.0342,3.0273,3.0283,3.0269,3.0195,3.0135,3.0125,3.0125,3.0154,3.0121,3.0107,3.0124,3.0002,3.0037,3.0022,2.9978,2.9855,2.9848,2.9842,2.9801,2.9788,2.9777,0,0,0,0,0,0,3.0298,3.0269,3.028,3.0198,3.0169,3.014,3.0098,3.0111,3.0072,3.0077,3.0078,3.0069,2.9997,2.998,3.002,2.9893,2.9933,2.9923,2.9907,2.9894,2.9884,2.989,3.0057,0,0,0,0,0,3.0279,3.0234,3.021,3.014,3.0125,3.0114,3.0088,3.0091,3.006,3.0047,3.0028,2.9997,2.9952,2.9922,2.9879,2.9794,2.9788,2.9757,2.9747,2.9739,2.973,2.9687,2.9673,2.9818,2.9818,2.9818,0,0,3.0239,3.0218,3.0188,3.0131,3.0109,3.0061,3.0103,3.0051,3.0016,3.0039,2.9972,2.9956,2.9922,2.9844,2.9809,2.9828,2.9689,2.9731,2.9724,2.972,2.9679,2.9665,2.9653,2.9814,2.9814,2.9815,0,0,3.0143,3.0121,3.0062,3.0039,3.0006,2.9999,2.9985,2.9955,2.9947,2.9879,2.9897,2.9855,2.9777,2.9752,2.973,2.9627,2.9642,2.9613,2.9561,2.9519,2.9508,2.9498,2.9463,2.945,2.9605,2.9605,2.9605,0,3.0097,3.0027,3.0029,2.9977,2.9952,2.9973,2.9913,2.9891,2.9844,2.9827,2.9849,2.9754,2.9732,2.9651,2.9626,2.9606,2.9591,2.9617,2.9509,2.9499,2.949,2.9457,2.9443,2.9602,2.9602,2.9602,2.9603,0,2.9973,2.9924,2.9881,2.9838,2.9808,2.9752,2.9747,2.9716,2.9722,2.9713,2.9646,2.9621,2.9575,2.9555,2.9559,2.9475,2.9488,2.951,2.955,2.9473,2.9442,2.9429,2.9597,2.9598,2.9599,2.96,0,0,2.9845,2.9807,2.9791,2.9773,2.9739,2.9701,2.9647,2.9603,2.9578,2.9546,2.9501,2.9436,2.9457,2.9431,2.9433,2.9396,2.9319,2.9422,2.9422,2.9405,2.9226,2.9211,2.9196,2.9329,2.9326,2.9324,2.923,0,2.9747,2.9653,2.9655,2.9568,2.9524,2.9545,2.9498,2.9472,2.9463,2.9425,2.9415,2.9369,2.9399,2.9384,2.9348,2.9336,2.9283,2.9343,2.9288,2.9286,2.9297,2.918,2.9163,2.9075,2.9218,2.9216,2.9214,0,2.9619,2.9586,2.9495,2.947,2.9452,2.9409,2.9371,2.9334,2.9306,2.9302,2.9275,2.9284,2.923,2.9272,2.9198,2.9238,2.9216,2.9207,2.9203,2.9199,2.9246,2.9173,2.9047,2.9034,2.9195,2.9196,2.9198,0,2.9538,2.9469,2.9407,2.939,2.9359,2.9329,2.9315,2.9289,2.9264,2.9231,2.9215,2.9174,2.9152,2.9122,2.912,2.915,2.9046,2.9087,2.9042,2.9042,2.9019,2.902,2.8888,2.9003,2.9003,2.9003,2.9004,0,2.9428,2.9372,2.937,2.9331,2.927,2.9273,2.9212,2.92,2.9178,2.9138,2.9153,2.9115,2.9114,2.9076,2.9074,2.9014,2.9003,2.9,2.9,2.8999,2.8999,2.8984,2.8991,2.9,2.9001,2.9001,2.9002,0,2.9326,2.9322,2.9256,2.9233,2.9226,2.9181,2.9162,2.9126,2.9119,2.9069,2.9057,2.9046,2.9002,2.8998,2.8945,2.8944,2.8873,2.8879,2.8883,2.8884,2.884,2.8845,2.8694,2.8675,2.8801,2.88,2.8799,0,2.9257,2.9215,2.9188,2.9164,2.9148,2.9107,2.9082,2.9085,2.9058,2.9025,2.8993,2.895,2.8917,2.8845,2.8833,2.8793,2.88,2.875,2.8794,2.8795,2.8801,2.8804,2.8801,2.8741,2.874,2.8739,2.8738,0,2.9136,2.9137,2.9101,2.9064,2.9035,2.9006,2.8979,2.8958,2.8957,2.8927,2.8883,2.8857,2.8805,2.8763,2.8725,2.8711,2.8724,2.8724,2.8712,2.8711,2.8716,2.8714,2.8861,2.8727,2.8729,2.8729,2.873,2.873,2.9049,2.9013,2.899,2.895,2.8931,2.8906,2.8872,2.8863,2.8826,2.8786,2.8789,2.8741,2.8716,2.8667,2.865,2.8612,2.8629,2.861,2.8606,2.8602,2.8598,2.8721,2.8605,2.8605,2.8605,2.8606,2.8606,0,2.893,2.8917,2.888,2.8843,2.8813,2.883,2.8802,2.8775,2.8732,2.8709,2.8676,2.8627,2.8587,2.8572,2.8534,2.8507,2.8512,2.8497,2.8499,2.8496,2.8585,2.86,2.8493,2.8493,2.8493,2.8493,2.8493,2.8493,2.8864,2.8806,2.8805,2.8738,2.8725,2.8679,2.8662,2.8639,2.8621,2.8566,2.8533,2.8525,2.8505,2.8466,2.8431,2.8428,2.8413,2.8395,2.8395,2.8478,2.8489,2.85,2.8515,2.8392,2.8392,2.831,2.8309,2.8308]}]]